N3368K KONT-MZBZ

Flight info

Callsign N3368K
Flight time N/A
Altitude 45000
Route NIKKL1 MZB J1 TIJ UT18 HMO UJ4 ELQ J42 TRC UJ46 TAM UT23 COFRE UM206 DASMO DASMO1A
Aircraft C700/M-SBDGHM1RWXY/LB2

Departure

Time 2026-05-08 12:42
Airport Ontario International Airport (KONT)

Arrival

Time N/A
Airport Philip S. W. Goldson International Airport (MZBZ)
Time Latitude Longitude Altitude Speed Heading
2026-05-08 12:24 34.05212 -117.60069 922 ft 0 kts 93°
2026-05-08 12:32 34.05212 -117.60070 922 ft 2 kts 93°
2026-05-08 12:33 34.05213 -117.60090 923 ft 2 kts 92°
2026-05-08 12:33 34.05213 -117.60110 925 ft 2 kts 91°
2026-05-08 12:33 34.05213 -117.60130 922 ft 2 kts 89°
2026-05-08 12:33 34.05212 -117.60149 923 ft 2 kts 72°
2026-05-08 12:34 34.05204 -117.60159 922 ft 0 kts
2026-05-08 12:37 34.05213 -117.60159 925 ft 5 kts 359°
2026-05-08 12:37 34.05275 -117.60184 925 ft 14 kts 313°
2026-05-08 12:38 34.05365 -117.60250 929 ft 16 kts
2026-05-08 12:38 34.05388 -117.60136 928 ft 19 kts 88°
2026-05-08 12:38 34.05388 -117.59950 928 ft 26 kts 91°
2026-05-08 12:38 34.05386 -117.59722 930 ft 28 kts 90°
2026-05-08 12:39 34.05387 -117.59480 928 ft 30 kts 90°
2026-05-08 12:39 34.05387 -117.59226 931 ft 31 kts 90°
2026-05-08 12:39 34.05388 -117.58980 924 ft 26 kts 90°
2026-05-08 12:39 34.05387 -117.58753 923 ft 28 kts 90°
2026-05-08 12:40 34.05387 -117.58516 922 ft 29 kts 90°
2026-05-08 12:40 34.05394 -117.58306 923 ft 18 kts 64°
2026-05-08 12:40 34.05413 -117.58283 924 ft 0 kts 22°
2026-05-08 12:41 34.05449 -117.58275 924 ft 12 kts
2026-05-08 12:41 34.05498 -117.58323 923 ft 0 kts 269°
2026-05-08 12:42 34.05496 -117.58556 925 ft 68 kts 270°
2026-05-08 12:42 34.05497 -117.59469 926 ft 147 kts 270°
2026-05-08 12:42 34.05496 -117.60908 1331 ft 191 kts 267°
2026-05-08 12:42 34.05282 -117.62687 1953 ft 241 kts 248°
2026-05-08 12:43 34.04091 -117.64162 3155 ft 243 kts 200°
2026-05-08 12:43 34.02405 -117.64338 4684 ft 258 kts 170°
2026-05-08 12:43 34.00823 -117.63250 5964 ft 271 kts 134°
2026-05-08 12:43 33.99695 -117.61389 7263 ft 278 kts 124°
2026-05-08 12:44 33.98569 -117.59498 8707 ft 278 kts 128°
2026-05-08 12:44 33.97225 -117.57817 10118 ft 280 kts 139°
2026-05-08 12:44 33.95635 -117.56404 11301 ft 287 kts 145°
2026-05-08 12:44 33.93979 -117.55023 12525 ft 291 kts 143°
2026-05-08 12:45 33.92363 -117.53532 13765 ft 296 kts 141°
2026-05-08 12:45 33.90691 -117.52055 14850 ft 301 kts 144°
2026-05-08 12:45 33.88953 -117.50593 15920 ft 308 kts 144°
2026-05-08 12:45 33.87184 -117.49093 17024 ft 314 kts 144°
2026-05-08 12:46 33.85377 -117.47577 18098 ft 320 kts 144°
2026-05-08 12:46 33.83523 -117.46027 19035 ft 328 kts 144°
2026-05-08 12:46 33.81636 -117.44448 20013 ft 332 kts 144°
2026-05-08 12:46 33.79729 -117.42850 20968 ft 337 kts 144°
2026-05-08 12:47 33.77792 -117.41227 21878 ft 342 kts 144°
2026-05-08 12:47 33.75849 -117.39604 22776 ft 346 kts 144°
2026-05-08 12:47 33.73859 -117.37940 23655 ft 351 kts 144°
2026-05-08 12:47 33.71841 -117.36254 24419 ft 355 kts 144°
2026-05-08 12:48 33.69803 -117.34553 25223 ft 359 kts 144°
2026-05-08 12:48 33.67748 -117.32839 26008 ft 363 kts 144°
2026-05-08 12:48 33.65656 -117.31096 26752 ft 367 kts 144°
2026-05-08 12:48 33.63552 -117.29342 27507 ft 371 kts 144°
2026-05-08 12:49 33.61416 -117.27564 28250 ft 375 kts 144°
2026-05-08 12:49 33.59257 -117.25768 28985 ft 379 kts 144°
2026-05-08 12:49 33.57822 -117.24573 29471 ft 382 kts 144°
2026-05-08 12:49 33.55624 -117.22746 30203 ft 386 kts 145°
2026-05-08 12:50 33.53405 -117.20902 30824 ft 389 kts 145°
2026-05-08 12:50 33.51163 -117.19041 31429 ft 393 kts 145°
2026-05-08 12:50 33.48905 -117.17168 32015 ft 396 kts 145°
2026-05-08 12:50 33.46627 -117.15278 32554 ft 401 kts 145°
2026-05-08 12:51 33.44315 -117.13373 33120 ft 404 kts 147°
2026-05-08 12:51 33.39074 -117.10889 34157 ft 411 kts 170°
2026-05-08 12:51 33.36219 -117.10590 34596 ft 414 kts 181°
2026-05-08 12:52 33.33349 -117.10948 35043 ft 416 kts 190°
2026-05-08 12:52 33.27602 -117.12177 35872 ft 422 kts 190°
2026-05-08 12:52 33.24700 -117.12786 36259 ft 425 kts 190°
2026-05-08 12:53 33.21777 -117.13401 36635 ft 427 kts 190°
2026-05-08 12:53 33.18882 -117.14012 36985 ft 430 kts 190°
2026-05-08 12:53 33.15925 -117.14637 37320 ft 432 kts 190°
2026-05-08 12:53 33.12961 -117.15260 37637 ft 434 kts 190°
2026-05-08 12:54 33.09970 -117.15889 37932 ft 437 kts 190°
2026-05-08 12:54 33.06967 -117.16520 38208 ft 439 kts 190°
2026-05-08 12:54 33.03953 -117.17153 38489 ft 441 kts 190°
2026-05-08 12:54 33.00932 -117.17782 38750 ft 442 kts 190°
2026-05-08 12:55 32.97895 -117.18421 38971 ft 444 kts 191°
2026-05-08 12:55 32.94851 -117.19065 39175 ft 445 kts 191°
2026-05-08 12:55 32.91796 -117.19705 39375 ft 447 kts 191°
2026-05-08 12:55 32.88747 -117.20340 39564 ft 448 kts 191°
2026-05-08 12:56 32.85657 -117.20896 39736 ft 450 kts 185°
2026-05-08 12:56 32.82522 -117.20864 39922 ft 453 kts 175°
2026-05-08 12:56 32.79412 -117.20203 40084 ft 455 kts 165°
2026-05-08 12:56 32.76431 -117.18921 40240 ft 457 kts 155°
2026-05-08 12:57 32.73663 -117.17049 40391 ft 460 kts 145°
2026-05-08 12:57 32.71192 -117.14640 40529 ft 461 kts 137°
2026-05-08 12:57 32.68854 -117.12001 40665 ft 463 kts 136°
2026-05-08 12:57 32.66512 -117.09364 40796 ft 464 kts 137°
2026-05-08 12:58 32.64165 -117.06734 40897 ft 466 kts 137°
2026-05-08 12:58 32.61804 -117.04090 41012 ft 467 kts 137°
2026-05-08 12:58 32.59461 -117.01461 41132 ft 469 kts 137°
2026-05-08 12:58 32.57104 -116.98784 41252 ft 470 kts 136°
2026-05-08 12:59 32.54781 -116.96051 41385 ft 471 kts 133°
2026-05-08 12:59 32.52777 -116.92953 41500 ft 473 kts 123°
2026-05-08 12:59 32.49229 -116.86360 41710 ft 475 kts 123°
2026-05-08 13:00 32.45636 -116.79767 41861 ft 478 kts 123°
2026-05-08 13:00 32.43837 -116.76448 41969 ft 479 kts 123°
2026-05-08 13:00 32.42060 -116.73174 42113 ft 478 kts 123°
2026-05-08 13:01 32.40242 -116.69835 42393 ft 475 kts 123°
2026-05-08 13:01 32.38481 -116.66607 42655 ft 472 kts 123°
2026-05-08 13:01 32.36699 -116.63340 42926 ft 469 kts 123°
2026-05-08 13:01 32.34938 -116.60111 43153 ft 467 kts 123°
2026-05-08 13:02 32.31390 -116.53620 43142 ft 473 kts 123°
2026-05-08 13:02 32.27797 -116.47056 43145 ft 478 kts 123°
2026-05-08 13:03 32.24165 -116.40425 43152 ft 483 kts 123°
2026-05-08 13:03 32.22341 -116.37095 43424 ft 479 kts 123°
2026-05-08 13:03 32.20540 -116.33811 43700 ft 475 kts 123°
2026-05-08 13:04 32.18745 -116.30545 43983 ft 472 kts 123°
2026-05-08 13:04 32.16964 -116.27306 44202 ft 470 kts 124°
2026-05-08 13:04 32.13392 -116.20815 44178 ft 474 kts 123°
2026-05-08 13:05 32.09776 -116.14256 44178 ft 478 kts 124°
2026-05-08 13:05 32.06140 -116.07671 44170 ft 481 kts 124°
2026-05-08 13:06 32.02469 -116.01034 44156 ft 485 kts 124°
2026-05-08 13:06 31.98794 -115.94404 44164 ft 487 kts 124°
2026-05-08 13:07 31.95082 -115.87716 44136 ft 488 kts 124°
2026-05-08 13:07 31.91370 -115.81042 44135 ft 486 kts 124°
2026-05-08 13:08 31.87669 -115.74402 44108 ft 484 kts 124°
2026-05-08 13:08 31.83971 -115.67783 44109 ft 483 kts 124°
2026-05-08 13:09 31.80283 -115.61189 44090 ft 482 kts 124°
2026-05-08 13:09 31.76595 -115.54609 44075 ft 482 kts 124°
2026-05-08 13:10 31.72899 -115.48026 44052 ft 483 kts 124°
2026-05-08 13:10 31.69213 -115.41471 44053 ft 483 kts 124°
2026-05-08 13:11 31.65501 -115.34882 44030 ft 484 kts 124°
2026-05-08 13:11 31.61782 -115.28293 44032 ft 485 kts 124°
2026-05-08 13:12 31.58045 -115.21682 44006 ft 486 kts 124°
2026-05-08 13:12 31.54298 -115.15067 44006 ft 487 kts 124°
2026-05-08 13:13 31.50547 -115.08453 44004 ft 488 kts 124°
2026-05-08 13:13 31.46779 -115.01822 44005 ft 488 kts 124°
2026-05-08 13:14 31.43018 -114.95216 44001 ft 487 kts 124°
2026-05-08 13:14 31.39281 -114.88661 43982 ft 486 kts 124°
2026-05-08 13:15 31.35528 -114.82091 43986 ft 485 kts 125°
2026-05-08 13:15 31.31782 -114.75544 43979 ft 484 kts 125°
2026-05-08 13:16 31.28033 -114.69001 43978 ft 484 kts 125°
2026-05-08 13:16 31.24274 -114.62454 43980 ft 486 kts 125°
2026-05-08 13:17 31.20497 -114.55884 43973 ft 488 kts 125°
2026-05-08 13:17 31.16700 -114.49293 43976 ft 489 kts 125°
2026-05-08 13:18 31.12887 -114.42683 43979 ft 491 kts 125°
2026-05-08 13:18 31.09101 -114.36131 43987 ft 489 kts 125°
2026-05-08 13:19 31.05295 -114.29558 43987 ft 488 kts 125°
2026-05-08 13:19 31.01495 -114.23004 43987 ft 487 kts 125°
2026-05-08 13:20 30.97702 -114.16475 43986 ft 486 kts 125°
2026-05-08 13:20 30.93910 -114.09956 43989 ft 486 kts 125°
2026-05-08 13:21 30.90108 -114.03432 43999 ft 487 kts 125°
2026-05-08 13:21 30.86308 -113.96923 44007 ft 489 kts 125°
2026-05-08 13:22 30.82502 -113.90413 43988 ft 490 kts 126°
2026-05-08 13:22 30.78648 -113.83835 43994 ft 492 kts 126°
2026-05-08 13:23 30.74784 -113.77247 43994 ft 493 kts 126°
2026-05-08 13:23 30.70919 -113.70669 44002 ft 492 kts 126°
2026-05-08 13:24 30.67054 -113.64102 44004 ft 492 kts 126°
2026-05-08 13:24 30.63186 -113.57541 43986 ft 492 kts 126°
2026-05-08 13:25 30.59339 -113.51029 43991 ft 492 kts 126°
2026-05-08 13:25 30.55472 -113.44489 43988 ft 492 kts 126°
2026-05-08 13:26 30.51572 -113.37907 44184 ft 489 kts 126°
2026-05-08 13:26 30.49649 -113.34665 44481 ft 485 kts 126°
2026-05-08 13:26 30.47767 -113.31496 44730 ft 481 kts 126°
2026-05-08 13:27 30.45873 -113.28308 44946 ft 478 kts 127°
2026-05-08 13:27 30.43982 -113.25130 44944 ft 480 kts 127°
2026-05-08 13:27 30.40178 -113.18740 44944 ft 483 kts 127°
2026-05-08 13:28 30.36346 -113.12314 44948 ft 487 kts 127°
2026-05-08 13:28 30.32480 -113.05841 44954 ft 490 kts 127°
2026-05-08 13:29 30.28588 -112.99333 44953 ft 493 kts 127°
2026-05-08 13:29 30.24667 -112.92791 44933 ft 496 kts 127°
2026-05-08 13:30 30.20720 -112.86215 44945 ft 499 kts 127°
2026-05-08 13:30 30.16757 -112.79621 44946 ft 498 kts 127°
2026-05-08 13:31 30.12829 -112.73098 44956 ft 496 kts 127°
2026-05-08 13:31 30.08887 -112.66563 44959 ft 495 kts 127°
2026-05-08 13:32 30.04979 -112.60093 44940 ft 494 kts 128°
2026-05-08 13:32 30.01041 -112.53586 44957 ft 495 kts 128°
2026-05-08 13:33 29.97081 -112.47052 44960 ft 497 kts 128°
2026-05-08 13:33 29.93107 -112.40505 44973 ft 500 kts 128°
2026-05-08 13:34 29.89101 -112.33916 44974 ft 502 kts 128°
2026-05-08 13:34 29.85093 -112.27333 44972 ft 501 kts 128°
2026-05-08 13:35 29.81769 -112.21882 44959 ft 499 kts 128°
2026-05-08 13:35 29.77126 -112.14282 44953 ft 498 kts 128°
2026-05-08 13:36 29.73806 -112.08856 44967 ft 499 kts 128°
2026-05-08 13:36 29.69773 -112.02276 44966 ft 501 kts 128°
2026-05-08 13:37 29.65778 -111.95766 44970 ft 503 kts 128°
2026-05-08 13:37 29.61727 -111.89172 44956 ft 505 kts 129°
2026-05-08 13:38 29.57663 -111.82571 44953 ft 506 kts 129°
2026-05-08 13:38 29.53607 -111.75990 44955 ft 504 kts 129°
2026-05-08 13:39 29.49558 -111.69435 44952 ft 502 kts 129°